Location: Unnamed
(51.5169°N, 0.1311°W)
Time: 19:24:38
(UTC+01:00)

Tiros 1 - Pass Details

Date: 13 August 2024
Orbit: 623 x 655 km, 48.4° (Epoch: 16 September)

Event Time Altitude Azimuth Distance (km) Brightness Sun altitude
Rises 08:59:53 0° 272° (W) 2,981 10.0 29.0°
Reaches altitude 10° 09:02:16 10° 268° (W) 2,068 9.3 29.3°
Maximum altitude 09:06:54 53° 192° (SSW) 806 8.1 30.0°
Drops below altitude 10° 09:11:31 10° 116° (ESE) 2,055 11.3 30.7°
Sets 09:13:53 0° 112° (ESE) 2,960 11.7 31.1°
